Voltar ao catálogo

PSLV DEB

AtivoPO
NORAD 38842·DEBRIS·🇮🇳 India

Lançado May 5, 2005 de Satish Dhawan Space Centre

Loading…

Próximas Passagens (próximas 24 horas)

TLE

EnvelhecendoSource: Space-Track

Época: Sep 4, 2026, 23:37 UTC

1 38842U 05017F   26247.98460036  .00017136  00000-0  48814-3 0  9991
2 38842  98.0838 333.7500 0019620  85.6959 274.6524 15.35986374866533

Acompanhe PSLV DEB em tempo real com AllMySat

Download on the App Store